This is the latest recevied weather packets stored in our database for station/object KM4KBD. If no packets are shown the sender has not sent any weather packets the latest 1 day(s).
| Time | Temp. | Humidity | Pressure | Rain* | Wind** | Luminosity | Snow |
|---|---|---|---|---|---|---|---|
| 1778064667 | 15° C | 99% | 1014.2 hPa | 0 mm | - | 2 W/m² | - |
| 1778063456 | 15° C | 99% | 1014.1 hPa | 0 mm | - | 0 W/m² | - |
| 1778062548 | 15° C | 99% | 1013.7 hPa | 0 mm | - | 0 W/m² | - |
| 1778062245 | 15° C | 99% | 1013.8 hPa | 0 mm | - | 0 W/m² | - |
| 1778061641 | 15° C | 99% | 1013.6 hPa | 0 mm | - | 0 W/m² | - |
| 1778061340 | 15° C | 99% | 1013.2 hPa | 0 mm | - | 0 W/m² | - |
| 1778060735 | 15° C | 99% | 1013.3 hPa | 1.78 mm | - | 0 W/m² | - |
| 1778060130 | 15° C | 99% | 1013.3 hPa | 4.32 mm | - | 0 W/m² | - |
| 1778059525 | 15° C | 99% | 1013.4 hPa | 15.49 mm | - | 0 W/m² | - |
| 1778058920 | 15° C | 99% | 1013.6 hPa | 7.87 mm | - | 0 W/m² | - |
| 1778058314 | 15° C | 99% | 1013.2 hPa | 4.32 mm | - | 0 W/m² | - |
| 1778058010 | 15° C | 99% | 1013.2 hPa | 3.05 mm | - | 0 W/m² | - |
| 1778056796 | 15° C | 98% | 1012.8 hPa | 4.32 mm | - | 0 W/m² | - |
| 1778056494 | 15° C | 98% | 1012.6 hPa | 0 mm | - | 0 W/m² | - |
| 1778056191 | 15° C | 97% | 1012.6 hPa | 1.78 mm | - | 0 W/m² | - |
| 1778055888 | 15.56° C | 97% | 1012.4 hPa | 3.05 mm | - | 0 W/m² | - |
| 1778055282 | 15.56° C | 96% | 1012.2 hPa | 0 mm | - | 0 W/m² | - |
| 1778054979 | 15.56° C | 96% | 1012.2 hPa | 0 mm | - | 0 W/m² | - |
| 1778054676 | 15.56° C | 96% | 1012.2 hPa | 0 mm | - | 0 W/m² | - |
| 1778054071 | 15.56° C | 95% | 1011.9 hPa | 0 mm | - | 0 W/m² | - |
| 1778053465 | 15.56° C | 94% | 1011.8 hPa | 1.78 mm | - | 0 W/m² | - |
| 1778053162 | 15.56° C | 95% | 1011.9 hPa | 3.56 mm | - | 0 W/m² | - |
| 1778052860 | 15.56° C | 94% | 1012 hPa | 3.05 mm | - | 0 W/m² | - |
| 1778051952 | 15.56° C | 94% | 1011.4 hPa | 0 mm | - | 0 W/m² | - |
| 1778051650 | 15.56° C | 94% | 1011.3 hPa | 0 mm | - | 0 W/m² | - |
* Rain latest hour (hover to see other rain measurements)
** Current wind speed in m/s (hover to see current wind gust speed)